Location: ???????
(60.4260°N, 46.9069°E)
Time: 18:35:20
(UTC+00:00)

H-2A R/B - Pass Details

Date: 30 March 2020
Orbit: 578 x 654 km, 98.5° (Epoch: 05 June)

Event Time Altitude Azimuth Distance (km) Brightness Sun altitude
Exits shadow 00:46:12 18° 243° (WSW) 1,517 3.4 -11.9°
Maximum altitude 00:47:36 21° 269° (W) 1,388 3.4 -11.8°
Drops below altitude 10° 00:50:48 10° 319° (NW) 1,946 4.5 -11.5°
Sets 00:53:25 0° 336° (NNW) 2,841 5.5 -11.2°
